Weather History for KGRR - September, 2012

Change the Weather History Date:

Thursday, September 27, 2012

  Actual Average Record
Temperature  
Mean Temperature 59 °F 58 °F  
Max Temperature 68 °F 68 °F 86 °F (1946)
Min Temperature 49 °F 48 °F 29 °F (1989)
Degree Days  
Heating Degree Days 6 8  
Month to date heating degree days 106 106  
Since 1 July heating degree days 115 126  
Cooling Degree Days 0 1  
Month to date cooling degree days 73 64  
Year to date cooling degree days 1035 689  
Growing Degree Days 8 (Base 50)    
Moisture  
Dew Point 45 °F    
Average Humidity 61    
Maximum Humidity 80    
Minimum Humidity 42    
Precipitation  
Precipitation 0.00 in 0.14 in 1.80 in (1911)
Month to date precipitation 1.97 3.88  
Year to date precipitation 24.19 28.60  
Snow  
Snow 0.00 in 0.00 in T in (1967)
Month to date snowfall 0.0 0.0  
Since 1 July snowfall 0.0 0.0  
Since 1 September snowfall 0.0 0.0  
Snow Depth 0.00 in    
Sea Level Pressure  
Sea Level Pressure 30.20 in    
Wind  
Wind Speed 9 mph (ENE)    
Max Wind Speed 16 mph    
Max Gust Speed 21 mph    
Visibility 10 miles    
Events      
T = Trace of Precipitation, MM = Missing Value Source: NWS Daily Summary

Daily Weather History Graph

Daily Weather History Graph

Search for Another Location

Airport or City:

Trip Planner

Search our weather history database for the weather conditions in past years. The results will help you decide how hot, cold, wet, or windy it might be!

Date:

Astronomy

Sep. 27, 2012 Rise Set
Actual Time 7:35 AM EDT 7:29 PM EDT
Civil Twilight 7:07 AM EDT 7:57 PM EDT
Nautical Twilight 6:34 AM EDT 8:30 PM EDT
Astronomical Twilight 6:00 AM EDT 9:04 PM EDT
Moon 6:02 PM EDT (9/27) 5:01 AM EDT (9/27)
Length of Visible Light 12h 50m
Length of Day
11h 54m
Waxing Gibbous, 94% of the Moon is Illuminated
Sep 27
Waxing Gibbous
Sep 29
Full
Oct 8
Last Quarter
Oct 15
New
Oct 21
First Quarter

Hourly Weather History & Observations

Time (EDT) Temp. Dew Point Humidity Pressure Visibility Wind Dir Wind Speed Gust Speed Precip Events Conditions
12:53 AM 48.9 °F 43.0 °F 80% 30.17 in 10.0 mi NE 8.1 mph - N/A   Clear
1:53 AM 50.0 °F 44.1 °F 80% 30.17 in 10.0 mi ENE 11.5 mph - N/A   Clear
2:53 AM 50.0 °F 44.1 °F 80% 30.19 in 10.0 mi ENE 11.5 mph - N/A   Scattered Clouds
3:00 AM 51.8 °F 44.6 °F 76% 30.18 in 10.0 mi ENE 11.5 mph - N/A   Mostly Cloudy
3:53 AM 51.1 °F 45.0 °F 80% 30.18 in 10.0 mi ENE 10.4 mph - N/A   Mostly Cloudy
4:07 AM 51.8 °F 44.6 °F 76% 30.18 in 10.0 mi ENE 11.5 mph - N/A   Scattered Clouds
4:16 AM 51.8 °F 44.6 °F 76% 30.18 in 10.0 mi ENE 10.4 mph - N/A   Mostly Cloudy
4:33 AM 51.8 °F 44.6 °F 76% 30.18 in 10.0 mi ENE 10.4 mph - N/A   Overcast
4:53 AM 52.0 °F 45.0 °F 77% 30.19 in 10.0 mi ENE 11.5 mph - N/A   Overcast
5:53 AM 52.0 °F 44.1 °F 74% 30.21 in 10.0 mi East 12.7 mph - N/A   Overcast
6:53 AM 50.0 °F 43.0 °F 77% 30.22 in 10.0 mi ENE 12.7 mph - N/A   Mostly Cloudy
7:53 AM 50.0 °F 43.0 °F 77% 30.24 in 10.0 mi East 10.4 mph - N/A   Mostly Cloudy
8:53 AM 51.1 °F 43.0 °F 74% 30.25 in 10.0 mi East 10.4 mph - N/A   Mostly Cloudy
9:53 AM 53.1 °F 44.1 °F 71% 30.26 in 10.0 mi East 12.7 mph - N/A   Mostly Cloudy
10:53 AM 57.9 °F 46.0 °F 65% 30.26 in 10.0 mi ENE 9.2 mph - N/A   Scattered Clouds
11:53 AM 61.0 °F 46.9 °F 60% 30.25 in 10.0 mi ENE 10.4 mph - N/A   Mostly Cloudy
12:53 PM 64.9 °F 44.1 °F 47% 30.24 in 10.0 mi ESE 13.8 mph 19.6 mph N/A   Mostly Cloudy
1:53 PM 64.4 °F 44.6 °F 49% 30.21 in 10.0 mi ESE 15.0 mph - N/A   Scattered Clouds
2:53 PM 68.0 °F 45.0 °F 43% 30.19 in 10.0 mi NE 10.4 mph - N/A   Mostly Cloudy
3:53 PM 66.9 °F 44.1 °F 44% 30.17 in 10.0 mi ENE 9.2 mph - N/A   Mostly Cloudy
4:53 PM 66.0 °F 44.1 °F 45% 30.18 in 10.0 mi East 5.8 mph - N/A   Overcast
5:53 PM 66.0 °F 45.0 °F 47% 30.17 in 10.0 mi East 8.1 mph - N/A   Mostly Cloudy
6:53 PM 63.0 °F 46.0 °F 54% 30.17 in 10.0 mi NE 6.9 mph - N/A   Mostly Cloudy
7:53 PM 59.0 °F 46.0 °F 62% 30.17 in 10.0 mi NE 4.6 mph - N/A   Mostly Cloudy
8:53 PM 55.9 °F 46.0 °F 69% 30.18 in 10.0 mi NE 4.6 mph - N/A   Scattered Clouds
9:53 PM 55.0 °F 46.0 °F 72% 30.19 in 10.0 mi ENE 5.8 mph - N/A   Mostly Cloudy
10:53 PM 54.0 °F 46.0 °F 75% 30.18 in 10.0 mi East 6.9 mph - N/A   Scattered Clouds
11:53 PM 55.0 °F 46.0 °F 72% 30.18 in 10.0 mi East 5.8 mph - N/A   Mostly Cloudy